"Pseudo-MPEC" for P11TCr2

Created 2024 Apr 22 10:22:07 UT using Find_Orb

Click here for an explanation of pseudo-MPECs

 
 Astrometry: 
     P11TCr2* C2024 04 17L6hAstrometryTI^mU.EfJGc]-E,5Y\'n`7oLCiwoYe#(Jp7X;$\F51
     P11TCr2  C2024 04 17bA@p@_TbfHIW(r*Kb'redacted;tAmx$qn;Oclick0sfL;`v[@[iF51
     P11TCr2  C2024 04 17(G7+%?XcD@j?;7=?.e58u.$H#D9^Z(@'@`here9^#8XHWs_NmH9(F51
     P11TCr2  C2024 04 17`iforjkn\i-tI5:+/@E#$#;\KL0dT#2G_Lj)j[w%*(tog]5g`njUF51
     P11TCr2  C2024 04 17*;':%5q8]0M:/explanationc7ihvDJJ98-(%Hvo#'d_uitm[W#+F51
     P11TCr2  C2024 04 18.33868015 26 49.061-26 46 10.77   ~4I8q 21.8 GVNEOCPH01
     P11TCr2 KC2024 04 18.34773015 26 48.679-26 45 36.22   ~4I8q 21.3 GVNEOCPH01
     P11TCr2 KC2024 04 18.35433415 26 48.365-26 45 10.86   ~4I8q 21.4 GVNEOCPH01
     P11TCr2 KC2024 04 18.36021415 26 48.126-26 44 48.08   ~4I8q 20.9 GVNEOCPH01
     P11TCr2 KC2024 04 18.37603015 26 47.510-26 43 48.80   ~4IA7       VNEOCPI52
     P11TCr2 KC2024 04 18.38843615 26 46.970-26 42 58.60   ~4IA7 21.68GVNEOCPI52

Station data:
(F51) Pan-STARRS 1, Haleakala  (N20.707234 W156.255910)  US/Hawaii.
   Observers J. Bulger, T. Lowe, A. Schultz, M. Willman. Measurers K.
   Chambers, S. Chastel, T. de Boer, L. Denneau, J. Fairlamb, H. Flewelling,
   M. Huber, C.-C. Lin, E. Magnier, Y. Ramanjooloo, R. Wainscoat, R. Weryk.
   1.8-m Ritchey-Chrétien + CCD.
(H01) Magdalena Ridge Observatory, Socorro  (N33.984833 W107.189333)  US/New
   Mexico.  Observers W. H. Ryan, E. V. Ryan. Measurer W. H. Ryan. 2.4-m
   f/8.9 reflector + CCD.
(I52) Steward Observatory, Mt. Lemmon Station  (N32.442570 W110.788920)
   US/Arizona.  Observers T. A. Pruyne, B. M. Africano, E. J. Christensen, G.
   A. Farneth, D. C. Fuls, A. R. Gibbs, A. D. Grauer, H. Gröller, J. A.
   Johnson, R. A. Kowalski, S. M. Larson, G. J. Leonard, D. Rankin, R. L.
   Seaman, F. C. Shelly, K. W. Wierzchoś. 1.0-m prime focus + CCD.

Orbital elements:  P11TCr2
   Perihelion 2024 Apr 3.46614 +/- 22.3 TT = 11:11:14 (JD 2460403.96614)
Epoch 2024 Apr 18.0 TT = JDT 2460418.5   Earth MOID: 0.3863      AutoNEOCP
M   7.47166278 +/- 11               (J2000 ecliptic)
n   0.51408654 +/- 0.0221           Peri.  346.12485 +/- 14
a   1.54328176 +/- 0.0441           Node   220.35836 +/- 0.12
e   0.0991833 +/- 0.0234            Incl.   31.42897 +/- 0.8
P   1.92/700.26d           H 21.72  G  0.15   U 10.2
q 1.39021399 +/- 0.0105    Q 1.69634954 +/- 0.084
From 11 observations 2024 Apr. 17-18 (21.2 hr); mean residual 0".42
Residuals in arcseconds: 
240417 F51  .18+  .19-    240417 F51  .22+  .09-    240418 H01  .02+  .31+    
240417 F51  .15-  .30+    240418 H01  .26-  .33+    240418 I52  .11+  1.5-    
240417 F51  .01-  .07-    240418 H01  .01-  .14+    240418 I52  .30+  .88+    
240417 F51  .24-  .04+    240418 H01  .28-  .13+    

Ephemerides (geocentric):
Date (UTC) HH   RA             Dec           delta  r     elong  mag " sig PA
---- --------  ------------   ------------  ------ ------ -----  --- --------
2024 04 22 10  15 23 59.061   -22 11 32.81  .40921 1.3929 157.9 21.4 27.2 163
2024 04 22 11  15 23 57.119   -22 08 37.15  .40908 1.3929 158.0 21.4 27.7 163
2024 04 22 12  15 23 55.174   -22 05 41.35  .40895 1.3930 158.0 21.4 28.2 163
2024 04 22 13  15 23 53.225   -22 02 45.41  .40882 1.3930 158.1 21.4 28.7 163
2024 04 22 14  15 23 51.272   -21 59 49.33  .40869 1.3930 158.2 21.4 29.2 163
2024 04 22 15  15 23 49.315   -21 56 53.12  .40856 1.3930 158.2 21.4 29.8 163
2024 04 22 16  15 23 47.354   -21 53 56.77  .40843 1.3930 158.3 21.3 30.3 163
2024 04 22 17  15 23 45.390   -21 51 00.29  .40830 1.3930 158.4 21.3 30.8 163
2024 04 22 18  15 23 43.421   -21 48 03.67  .40817 1.3930 158.4 21.3 31.4 163
2024 04 22 19  15 23 41.450   -21 45 06.91  .40804 1.3930 158.5 21.3 32.0 163
2024 04 22 20  15 23 39.474   -21 42 10.03  .40792 1.3930 158.6 21.3 32.5 163
2024 04 22 21  15 23 37.494   -21 39 13.00  .40779 1.3931 158.6 21.3 33.1 163
2024 04 22 22  15 23 35.511   -21 36 15.85  .40766 1.3931 158.7 21.3 33.6 163
2024 04 22 23  15 23 33.524   -21 33 18.56  .40754 1.3931 158.7 21.3 34.2 163
2024 04 23 00  15 23 31.534   -21 30 21.14  .40741 1.3931 158.8 21.3 34.8 163
2024 04 23 01  15 23 29.540   -21 27 23.58  .40729 1.3931 158.9 21.3 35.4 163
2024 04 23 02  15 23 27.542   -21 24 25.90  .40716 1.3931 158.9 21.3 36.0 163
2024 04 23 03  15 23 25.540   -21 21 28.08  .40704 1.3931 159.0 21.3 36.6 163
2024 04 23 04  15 23 23.535   -21 18 30.14  .40691 1.3931 159.1 21.3 37.2 163
2024 04 23 05  15 23 21.526   -21 15 32.06  .40679 1.3932 159.1 21.3 37.8 163
2024 04 23 06  15 23 19.514   -21 12 33.86  .40667 1.3932 159.2 21.3 38.4 163
2024 04 23 07  15 23 17.498   -21 09 35.52  .40655 1.3932 159.3 21.3 39.0 163
2024 04 23 08  15 23 15.478   -21 06 37.06  .40643 1.3932 159.3 21.3 39.6 163
2024 04 23 09  15 23 13.455   -21 03 38.47  .40631 1.3932 159.4 21.3 40.2 163
2024 04 23 10  15 23 11.428   -21 00 39.75  .40619 1.3932 159.5 21.3 40.9 163
2024 04 23 11  15 23 09.397   -20 57 40.90  .40607 1.3932 159.5 21.3 41.5 163
2024 04 23 12  15 23 07.363   -20 54 41.93  .40595 1.3932 159.6 21.3 42.1 163
2024 04 23 13  15 23 05.326   -20 51 42.83  .40583 1.3933 159.7 21.3 42.8 163
2024 04 23 14  15 23 03.285   -20 48 43.61  .40571 1.3933 159.7 21.3 43.4 163
2024 04 23 15  15 23 01.240   -20 45 44.26  .40559 1.3933 159.8 21.3 44.1 163
2024 04 23 16  15 22 59.192   -20 42 44.79  .40548 1.3933 159.9 21.3 44.7 163
2024 04 23 17  15 22 57.140   -20 39 45.19  .40536 1.3933 159.9 21.3 45.4 163
2024 04 23 18  15 22 55.085   -20 36 45.47  .40524 1.3933 160.0 21.3 46.1 163
2024 04 23 19  15 22 53.026   -20 33 45.63  .40513 1.3933 160.1 21.3 46.7 163
2024 04 23 20  15 22 50.964   -20 30 45.66  .40501 1.3933 160.1 21.3 47.4 163
2024 04 23 21  15 22 48.899   -20 27 45.58  .40490 1.3934 160.2 21.3 48.1 163
2024 04 23 22  15 22 46.830   -20 24 45.37  .40479 1.3934 160.3 21.3 48.8 163
2024 04 23 23  15 22 44.757   -20 21 45.04  .40467 1.3934 160.3 21.3 49.5 163
2024 04 24 00  15 22 42.681   -20 18 44.59  .40456 1.3934 160.4 21.3 50.2 163
2024 04 24 01  15 22 40.602   -20 15 44.02  .40445 1.3934 160.4 21.3 50.9 163
2024 04 24 02  15 22 38.519   -20 12 43.33  .40434 1.3934 160.5 21.3 51.6 163
2024 04 24 03  15 22 36.433   -20 09 42.52  .40423 1.3934 160.6 21.3 52.3 163
2024 04 24 04  15 22 34.344   -20 06 41.59  .40411 1.3935 160.6 21.3 53.0 163
2024 04 24 05  15 22 32.251   -20 03 40.55  .40400 1.3935 160.7 21.3 53.8 163
2024 04 24 06  15 22 30.154   -20 00 39.39  .40390 1.3935 160.8 21.3 54.5 163
2024 04 24 07  15 22 28.055   -19 57 38.11  .40379 1.3935 160.8 21.3 55.2 163
2024 04 24 08  15 22 25.952   -19 54 36.72  .40368 1.3935 160.9 21.3 56.0 163
2024 04 24 09  15 22 23.846   -19 51 35.21  .40357 1.3935 161.0 21.3 56.7 163